GPS BIIR-4 (PRN 20)

Last updated on May 20, 2019, 3:09 a.m. UTC

1 26360U 00025A   19139.22978910  .00000012  00000-0  00000+0 0  9997
2 26360  53.3267 125.6451 0042385 137.3961 313.0633  2.00561413139397
UTC
Height (km)
Latitude
Longitude
Inclination
Orbital Period
UTC large
Height (km)
Speed (km/s)
/
Latitude / Longitude
Inclination (degrees)
Orbital Period (minutes)
Azimuth
Elevation
Range (km)
Doppler Factor
iOS Compass Heading
iOS Angle

Next 30 passes for location: Hong Kong

Rise time Rise Azimuth (degrees) Set time Set Azimuth (degrees) Duration Max altitude (degrees)

No matching passes for this satellites